Time,TemperatureF,DewpointF,PressureIn,WindDirection,WindDirectionDegrees,WindSpeedMPH,WindSpeedGustMPH,Humidity,HourlyPrecipIn,Conditions,Clouds,dailyrainin,SoftwareType,DateUTC
2013-07-14 00:01:00,80.5,75.2,29.84,South,180,3.0,-999.0,84,0.00,,,0.00,Wunderground v.1.15,2013-07-14 05:01:00,
2013-07-14 00:06:00,80.5,75.2,29.84,South,180,3.0,-999.0,84,0.00,,,0.00,Wunderground v.1.15,2013-07-14 05:06:00,
2013-07-14 00:11:00,80.5,75.2,29.84,South,180,3.0,-999.0,84,0.00,,,0.00,Wunderground v.1.15,2013-07-14 05:11:00,
2013-07-14 00:16:00,80.5,75.2,29.84,South,180,3.0,-999.0,84,0.00,,,0.00,Wunderground v.1.15,2013-07-14 05:16:00,
2013-07-14 00:21:00,80.5,75.2,29.84,South,180,3.0,-999.0,84,0.00,,,0.00,Wunderground v.1.15,2013-07-14 05:21:00,
2013-07-14 00:26:00,80.5,75.2,29.84,South,180,3.0,-999.0,84,0.00,,,0.00,Wunderground v.1.15,2013-07-14 05:26:00,
2013-07-14 00:31:00,80.5,75.2,29.84,South,180,3.0,-999.0,84,0.00,,,0.00,Wunderground v.1.15,2013-07-14 05:31:00,
2013-07-14 00:36:00,80.5,75.2,29.84,South,180,3.0,-999.0,84,0.00,,,0.00,Wunderground v.1.15,2013-07-14 05:36:00,
2013-07-14 00:41:00,80.5,75.2,29.84,South,180,3.0,-999.0,84,0.00,,,0.00,Wunderground v.1.15,2013-07-14 05:41:00,
2013-07-14 00:46:00,80.6,75.3,29.83,SSW,203,3.0,-999.0,84,0.00,,,0.00,Wunderground v.1.15,2013-07-14 05:46:00,
2013-07-14 00:51:00,80.6,75.3,29.83,SSW,203,3.0,-999.0,84,0.00,,,0.00,Wunderground v.1.15,2013-07-14 05:51:00,
2013-07-14 00:56:00,80.6,75.3,29.83,SSW,203,3.0,-999.0,84,0.00,,,0.00,Wunderground v.1.15,2013-07-14 05:56:00,
2013-07-14 01:01:00,80.6,75.3,29.83,SSW,203,3.0,-999.0,84,0.00,,,0.00,Wunderground v.1.15,2013-07-14 06:01:00,
2013-07-14 01:06:00,80.6,75.3,29.83,SSW,203,3.0,-999.0,84,0.00,,,0.00,Wunderground v.1.15,2013-07-14 06:06:00,
2013-07-14 01:11:00,80.6,75.3,29.83,SSW,203,3.0,-999.0,84,0.00,,,0.00,Wunderground v.1.15,2013-07-14 06:11:00,
2013-07-14 01:16:00,80.6,75.7,29.82,SSW,203,4.0,-999.0,85,0.00,,,0.00,Wunderground v.1.15,2013-07-14 06:16:00,
2013-07-14 01:21:00,80.6,75.7,29.82,SSW,203,4.0,-999.0,85,0.00,,,0.00,Wunderground v.1.15,2013-07-14 06:21:00,
2013-07-14 01:26:00,80.6,75.7,29.82,SSW,203,4.0,-999.0,85,0.00,,,0.00,Wunderground v.1.15,2013-07-14 06:26:00,
2013-07-14 01:31:00,80.6,75.7,29.82,SSW,203,4.0,-999.0,85,0.00,,,0.00,Wunderground v.1.15,2013-07-14 06:31:00,
2013-07-14 01:36:00,80.6,75.7,29.82,SSW,203,4.0,-999.0,85,0.00,,,0.00,Wunderground v.1.15,2013-07-14 06:36:00,
2013-07-14 01:41:00,80.6,75.7,29.82,SSW,203,4.0,-999.0,85,0.00,,,0.00,Wunderground v.1.15,2013-07-14 06:41:00,
2013-07-14 01:46:00,80.6,76.0,29.82,SSW,203,3.0,-999.0,86,0.00,,,0.00,Wunderground v.1.15,2013-07-14 06:46:00,
2013-07-14 01:51:00,80.6,76.0,29.82,SSW,203,3.0,-999.0,86,0.00,,,0.00,Wunderground v.1.15,2013-07-14 06:51:00,
2013-07-14 01:56:00,80.6,76.0,29.82,SSW,203,3.0,-999.0,86,0.00,,,0.00,Wunderground v.1.15,2013-07-14 06:56:00,
2013-07-14 02:01:00,80.6,76.0,29.82,SSW,203,3.0,-999.0,86,0.00,,,0.00,Wunderground v.1.15,2013-07-14 07:01:00,
2013-07-14 02:06:00,80.6,76.0,29.82,SSW,203,3.0,-999.0,86,0.00,,,0.00,Wunderground v.1.15,2013-07-14 07:06:00,
2013-07-14 02:11:00,80.6,76.0,29.82,SSW,203,3.0,-999.0,86,0.00,,,0.00,Wunderground v.1.15,2013-07-14 07:11:00,
2013-07-14 02:16:00,80.2,76.0,29.81,SSW,203,3.0,-999.0,87,0.00,,,0.00,Wunderground v.1.15,2013-07-14 07:16:00,
2013-07-14 09:30:00,85.2,76.8,29.84,WSW,241,2.0,2.0,76,0.00,,,0.00,Wunderground v.1.15,2013-07-14 14:30:00,
2013-07-14 15:20:00,90.0,75.7,29.81,East,90,7.0,7.0,63,0.00,,,0.00,Wunderground v.1.15,2013-07-14 20:20:00,
2013-07-14 15:25:00,89.8,76.5,29.81,East,81,8.0,8.0,65,0.00,,,0.00,Wunderground v.1.15,2013-07-14 20:25:00,
2013-07-14 15:30:00,89.5,75.7,29.81,ESE,117,8.0,8.0,64,0.00,,,0.00,Wunderground v.1.15,2013-07-14 20:30:00,
2013-07-14 15:35:00,89.2,76.4,29.81,East,88,9.0,10.0,66,0.00,,,0.00,Wunderground v.1.15,2013-07-14 20:35:00,
2013-07-14 15:40:00,88.9,75.6,29.81,East,87,10.0,15.0,65,0.00,,,0.00,Wunderground v.1.15,2013-07-14 20:40:00,
2013-07-14 15:50:00,89.1,75.8,29.80,ESE,104,9.0,9.0,65,0.00,,,0.00,Wunderground v.1.15,2013-07-14 20:50:00,
2013-07-14 15:55:00,89.3,76.0,29.80,East,88,8.0,9.0,65,0.00,,,0.00,Wunderground v.1.15,2013-07-14 20:55:00,
2013-07-14 16:00:00,89.2,75.9,29.80,SSE,152,8.0,8.0,65,0.00,,,0.00,Wunderground v.1.15,2013-07-14 21:00:00,
2013-07-14 16:10:00,89.5,75.7,29.80,SE,135,7.0,7.0,64,0.00,,,0.00,Wunderground v.1.15,2013-07-14 21:10:00,
2013-07-14 16:15:00,89.0,75.2,29.80,ENE,63,9.0,9.0,64,0.00,,,0.00,Wunderground v.1.15,2013-07-14 21:15:00,
2013-07-14 16:25:00,89.1,76.3,29.80,ESE,110,8.0,14.0,66,0.00,,,0.00,Wunderground v.1.15,2013-07-14 21:25:00,
2013-07-14 16:30:00,88.6,75.8,29.80,ESE,117,8.0,13.0,66,0.00,,,0.00,Wunderground v.1.15,2013-07-14 21:30:00,
2013-07-14 16:35:00,88.3,75.9,29.79,SE,128,9.0,13.0,67,0.00,,,0.00,Wunderground v.1.15,2013-07-14 21:35:00,
2013-07-14 16:40:00,88.5,75.7,29.79,SSE,148,9.0,9.0,66,0.00,,,0.00,Wunderground v.1.15,2013-07-14 21:40:00,
2013-07-14 16:45:00,88.7,76.3,29.79,East,88,8.0,9.0,67,0.00,,,0.00,Wunderground v.1.15,2013-07-14 21:45:00,
2013-07-14 16:55:00,88.7,77.2,29.79,East,96,8.0,13.0,69,0.00,,,0.00,Wunderground v.1.15,2013-07-14 21:55:00,
2013-07-14 17:00:00,88.6,76.2,29.79,East,96,8.0,8.0,67,0.00,,,0.00,Wunderground v.1.15,2013-07-14 22:00:00,
2013-07-14 17:10:00,88.7,76.8,29.79,East,91,8.0,9.0,68,0.00,,,0.00,Wunderground v.1.15,2013-07-14 22:10:00,
2013-07-14 17:15:00,88.6,76.2,29.79,East,91,7.0,11.0,67,0.00,,,0.00,Wunderground v.1.15,2013-07-14 22:15:00,
2013-07-14 17:20:00,88.6,76.7,29.79,East,98,8.0,13.0,68,0.00,,,0.00,Wunderground v.1.15,2013-07-14 22:20:00,
2013-07-14 17:30:00,88.5,77.0,29.78,ESE,113,6.0,9.0,69,0.00,,,0.00,Wunderground v.1.15,2013-07-14 22:30:00,
2013-07-14 17:35:00,88.6,76.7,29.78,ESE,108,7.0,9.0,68,0.00,,,0.00,Wunderground v.1.15,2013-07-14 22:35:00,
2013-07-14 17:40:00,88.4,76.9,29.78,ESE,121,8.0,8.0,69,0.00,,,0.00,Wunderground v.1.15,2013-07-14 22:40:00,
2013-07-14 17:45:00,88.3,76.8,29.78,East,89,8.0,8.0,69,0.00,,,0.00,Wunderground v.1.15,2013-07-14 22:45:00,
2013-07-14 17:50:00,87.8,76.4,29.78,SE,143,8.0,8.0,69,0.00,,,0.00,Wunderground v.1.15,2013-07-14 22:50:00,
2013-07-14 18:00:00,86.9,76.4,29.78,ESE,102,7.0,7.0,71,0.00,,,0.00,Wunderground v.1.15,2013-07-14 23:00:00,
2013-07-14 18:10:00,86.6,76.1,29.77,SE,125,7.0,12.0,71,0.00,,,0.00,Wunderground v.1.15,2013-07-14 23:10:00,
2013-07-14 18:15:00,86.6,75.6,29.77,SE,128,7.0,12.0,70,0.00,,,0.00,Wunderground v.1.15,2013-07-14 23:15:00,
2013-07-14 18:20:00,86.6,75.6,29.77,ESE,104,7.0,7.0,70,0.00,,,0.00,Wunderground v.1.15,2013-07-14 23:20:00,
2013-07-14 18:25:00,86.6,75.6,29.77,ESE,117,7.0,7.0,70,0.00,,,0.00,Wunderground v.1.15,2013-07-14 23:25:00,
2013-07-14 18:35:00,86.3,74.5,29.77,SE,141,6.0,7.0,68,0.00,,,0.00,Wunderground v.1.15,2013-07-14 23:35:00,
2013-07-14 18:40:00,86.1,74.7,29.77,ESE,108,6.0,8.0,69,0.00,,,0.00,Wunderground v.1.15,2013-07-14 23:40:00,
2013-07-14 18:45:00,86.0,75.5,29.76,SE,125,7.0,13.0,71,0.00,,,0.00,Wunderground v.1.15,2013-07-14 23:45:00,
2013-07-14 18:50:00,85.8,76.1,29.77,SSE,154,7.0,10.0,73,0.00,,,0.00,Wunderground v.1.15,2013-07-14 23:50:00,
2013-07-14 18:55:00,85.7,76.0,29.76,South,169,6.0,10.0,73,0.00,,,0.00,Wunderground v.1.15,2013-07-14 23:55:00,
2013-07-14 19:00:00,85.4,75.8,29.77,SE,124,6.0,7.0,73,0.00,,,0.00,Wunderground v.1.15,2013-07-15 00:00:00,
2013-07-14 19:09:00,85.2,76.4,29.78,ESE,123,7.0,10.0,75,0.00,,,0.00,Wunderground v.1.15,2013-07-15 00:09:00,
2013-07-14 19:14:00,85.1,75.9,29.78,SE,129,7.0,10.0,74,0.00,,,0.00,Wunderground v.1.15,2013-07-15 00:14:00,
2013-07-14 19:19:00,85.0,75.8,29.78,ENE,58,7.0,7.0,74,0.00,,,0.00,Wunderground v.1.15,2013-07-15 00:19:00,
2013-07-14 19:25:00,84.9,75.7,29.78,ESE,115,7.0,7.0,74,0.00,,,0.00,Wunderground v.1.15,2013-07-15 00:25:00,
2013-07-14 19:30:00,84.8,75.2,29.78,SSW,197,6.0,8.0,73,0.00,,,0.00,Wunderground v.1.15,2013-07-15 00:30:00,
2013-07-14 19:35:00,84.8,75.6,29.78,ESE,107,5.0,8.0,74,0.00,,,0.00,Wunderground v.1.15,2013-07-15 00:35:00,
2013-07-14 19:40:00,84.7,75.5,29.78,East,98,6.0,6.0,74,0.00,,,0.00,Wunderground v.1.15,2013-07-15 00:40:00,
2013-07-14 19:45:00,84.6,75.8,29.79,ESE,107,7.0,12.0,75,0.00,,,0.00,Wunderground v.1.15,2013-07-15 00:45:00,
2013-07-14 19:50:00,84.5,75.7,29.79,ESE,105,7.0,7.0,75,0.00,,,0.00,Wunderground v.1.15,2013-07-15 00:50:00,
2013-07-14 19:55:00,84.6,75.8,29.79,SE,133,6.0,7.0,75,0.00,,,0.00,Wunderground v.1.15,2013-07-15 00:55:00,
2013-07-14 20:00:00,84.5,75.7,29.79,SSW,210,6.0,6.0,75,0.00,,,0.00,Wunderground v.1.15,2013-07-15 01:00:00,
2013-07-14 20:10:00,84.2,75.4,29.79,ENE,69,7.0,7.0,75,0.00,,,0.00,Wunderground v.1.15,2013-07-15 01:10:00,
2013-07-14 20:15:00,84.2,75.8,29.79,SE,141,6.0,9.0,76,0.00,,,0.00,Wunderground v.1.15,2013-07-15 01:15:00,
2013-07-14 20:20:00,84.0,76.0,29.79,SE,135,6.0,6.0,77,0.00,,,0.00,Wunderground v.1.15,2013-07-15 01:20:00,
2013-07-14 20:25:00,83.8,76.2,29.79,SE,131,6.0,8.0,78,0.00,,,0.00,Wunderground v.1.15,2013-07-15 01:25:00,
2013-07-14 20:30:00,83.7,76.1,29.79,ENE,75,5.0,5.0,78,0.00,,,0.00,Wunderground v.1.15,2013-07-15 01:30:00,
2013-07-14 20:35:00,83.6,76.0,29.78,ESE,121,5.0,7.0,78,0.00,,,0.00,Wunderground v.1.15,2013-07-15 01:35:00,
2013-07-14 20:40:00,83.6,75.6,29.79,ESE,119,6.0,15.0,77,0.00,,,0.00,Wunderground v.1.15,2013-07-15 01:40:00,
2013-07-14 20:45:00,83.6,76.0,29.79,SSE,153,7.0,15.0,78,0.00,,,0.00,Wunderground v.1.15,2013-07-15 01:45:00,
2013-07-14 20:50:00,83.5,75.9,29.79,East,99,6.0,9.0,78,0.00,,,0.00,Wunderground v.1.15,2013-07-15 01:50:00,
2013-07-14 20:55:00,83.4,75.8,29.79,SE,128,6.0,9.0,78,0.00,,,0.00,Wunderground v.1.15,2013-07-15 01:55:00,
2013-07-14 21:00:00,83.4,75.4,29.79,SSE,151,6.0,13.0,77,0.00,,,0.00,Wunderground v.1.15,2013-07-15 02:00:00,
2013-07-14 21:10:00,83.5,75.5,29.80,SSE,165,6.0,6.0,77,0.00,,,0.00,Wunderground v.1.15,2013-07-15 02:10:00,
2013-07-14 21:20:00,83.5,75.9,29.81,SSW,198,3.0,4.0,78,0.00,,,0.00,Wunderground v.1.15,2013-07-15 02:20:00,
2013-07-14 21:25:00,83.4,76.2,29.81,ESE,111,4.0,9.0,79,0.00,,,0.00,Wunderground v.1.15,2013-07-15 02:25:00,
2013-07-14 21:30:00,83.4,75.8,29.82,SE,146,5.0,5.0,78,0.00,,,0.00,Wunderground v.1.15,2013-07-15 02:30:00,
2013-07-14 21:35:00,83.4,76.2,29.82,SE,131,6.0,6.0,79,0.00,,,0.00,Wunderground v.1.15,2013-07-15 02:35:00,
2013-07-14 21:40:00,83.4,76.2,29.82,SSE,152,5.0,5.0,79,0.00,,,0.00,Wunderground v.1.15,2013-07-15 02:40:00,
2013-07-14 21:45:00,83.4,76.2,29.82,SE,126,5.0,5.0,79,0.00,,,0.00,Wunderground v.1.15,2013-07-15 02:45:00,
2013-07-14 21:50:00,83.3,76.1,29.81,South,174,5.0,5.0,79,0.00,,,0.00,Wunderground v.1.15,2013-07-15 02:50:00,
2013-07-14 21:55:00,83.3,76.1,29.81,WSW,252,4.0,5.0,79,0.00,,,0.00,Wunderground v.1.15,2013-07-15 02:55:00,
2013-07-14 22:00:00,83.3,75.7,29.82,South,181,4.0,9.0,78,0.00,,,0.00,Wunderground v.1.15,2013-07-15 03:00:00,
2013-07-14 22:10:00,83.2,75.6,29.82,SSW,203,4.0,4.0,78,0.00,,,0.00,Wunderground v.1.15,2013-07-15 03:10:00,
2013-07-14 22:15:00,83.2,76.0,29.82,SE,131,4.0,4.0,79,0.00,,,0.00,Wunderground v.1.15,2013-07-15 03:15:00,
2013-07-14 22:25:00,83.2,76.0,29.82,South,177,4.0,7.0,79,0.00,,,0.00,Wunderground v.1.15,2013-07-15 03:25:00,
2013-07-14 22:30:00,83.1,75.9,29.82,SE,143,5.0,5.0,79,0.00,,,0.00,Wunderground v.1.15,2013-07-15 03:30:00,
2013-07-14 22:35:00,83.0,75.8,29.82,ESE,110,6.0,10.0,79,0.00,,,0.00,Wunderground v.1.15,2013-07-15 03:35:00,
2013-07-14 22:40:00,83.0,75.8,29.82,SSW,195,7.0,7.0,79,0.00,,,0.00,Wunderground v.1.15,2013-07-15 03:40:00,
2013-07-14 22:45:00,83.0,75.8,29.82,ESE,117,5.0,7.0,79,0.00,,,0.00,Wunderground v.1.15,2013-07-15 03:45:00,
2013-07-14 22:55:00,82.8,75.6,29.81,East,94,4.0,5.0,79,0.00,,,0.00,Wunderground v.1.15,2013-07-15 03:55:00,
2013-07-14 23:00:00,82.8,75.6,29.82,SSE,151,4.0,4.0,79,0.00,,,0.00,Wunderground v.1.15,2013-07-15 04:00:00,
2013-07-14 23:05:00,82.8,76.0,29.81,South,181,5.0,5.0,80,0.00,,,0.00,Wunderground v.1.15,2013-07-15 04:05:00,
2013-07-14 23:10:00,82.7,75.5,29.81,SSW,193,5.0,6.0,79,0.00,,,0.00,Wunderground v.1.15,2013-07-15 04:10:00,
2013-07-14 23:15:00,82.7,75.5,29.82,SSE,166,5.0,6.0,79,0.00,,,0.00,Wunderground v.1.15,2013-07-15 04:15:00,
2013-07-14 23:20:00,82.7,75.5,29.82,ESE,117,6.0,6.0,79,0.00,,,0.00,Wunderground v.1.15,2013-07-15 04:20:00,
2013-07-14 23:30:00,82.7,75.5,29.82,South,173,4.0,4.0,79,0.00,,,0.00,Wunderground v.1.15,2013-07-15 04:30:00,
2013-07-14 23:35:00,82.7,75.5,29.82,SSE,153,4.0,5.0,79,0.00,,,0.00,Wunderground v.1.15,2013-07-15 04:35:00,
2013-07-14 23:40:00,82.6,75.8,29.82,SE,129,5.0,8.0,80,0.00,,,0.00,Wunderground v.1.15,2013-07-15 04:40:00,
2013-07-14 23:45:00,82.6,75.8,29.82,ENE,65,4.0,8.0,80,0.00,,,0.00,Wunderground v.1.15,2013-07-15 04:45:00,
2013-07-14 23:50:00,82.5,75.3,29.82,South,173,4.0,5.0,79,0.00,,,0.00,Wunderground v.1.15,2013-07-15 04:50:00,